Simultaneous Nadir Overpasses (SNOs) Predictions

Prediction of SNOs between METOP-B and NOAA-19 Satellite Orbit:

Table of predicted SNOs for the next 14.0 days since TLE Epoch: 11/28/2015
Index Date (METOP-B) Time (METOP-B) Lat,Lon (METOP-B) SZA (METOP-B ) Date (NOAA-19) Time (NOAA-19) Lat,Lon (NOAA-19) SZA (NOAA-19 ) Distance(km) Time Diff (sec)
1 12/07/2015 13:06:54 -75.80, 162.90 81.67 12/07/2015 13:05:44 -75.85, 160.88 81.64 55.37 70
2 12/07/2015 13:57:40 75.50, -30.72 98.03 12/07/2015 13:56:35 75.50, -30.71 98.03 0.48 65
3 12/07/2015 14:48:22 -75.50, 136.61 81.97 12/07/2015 14:47:39 -75.51, 136.49 81.96 3.42 43
4 12/07/2015 15:39:02 75.48, -56.13 98.01 12/07/2015 15:38:37 75.49, -56.17 98.02 1.64 25
5 12/07/2015 16:29:44 -75.48, 111.19 81.99 12/07/2015 16:29:40 -75.45, 111.19 82.02 2.92 4
6
